Location: Unspecified
(0.0000°N, 0.0000°E)
Time: 14:04:01
(UTC+00:00)

STARLINK-34936 - Pass Details

Date: 20 February 2026
Orbit: 474 x 476 km, 53.2° (Epoch: 14 March)

Event Time Altitude Azimuth Distance (km) Brightness Sun altitude
Rises 19:31:02 0° 205° (SSW) 2,521 6.5 -19.0°
Reaches altitude 10° 19:33:15 10° 198° (SSW) 1,639 5.4 -19.5°
Enters shadow 19:36:19 43° 151° (SSE) 675 2.9 -20.3°
